Flag for Germany Weather past 2 weeks in Ilmenau, Thuringia, Germany

Now
64 °F

Fog.


Feels Like: 64 °F
Forecast: 55 / 71 °F
Wind: 3 mph from West

Location: Erfurt-Bindersleben

Current Time: Jul 30, 2014 at 3:52:00 AM

Latest Report: Jul 30, 2014 at 3:20 AM


Visibility: 3 mi

Pressure: 29.74 "Hg

Humidity: 100%

Dew point: 64 °F

Location of IlmenauLocation

Historic Weather in Ilmenau — Graph

°F

Ilmenau temperature yesterday

Maximum temperature yesterday: 75 °F (at 2:20 PM)
Minimum temperature yesterday: 63 °F (at 1:20 AM)
Average temperature yesterday: 68 °F

Past Weeks' High & Low Weather Summary

 TemperatureHumidityPressure
High88 °F (Jul 19, 3:20 PM)100% (Jul 15, 4:50 AM)30.21 "Hg (Jul 15, 4:50 AM)
Low55 °F (Jul 15, 4:20 AM)25% (Jul 19, 6:20 PM)29.74 "Hg (Jul 29, 10:20 PM)
Average69 °F70%29.99 "Hg
* Reported Jul 15 2:20 AM — Jul 30 2:20 AM, Ilmenau, Weather by CustomWeather, © 2014

Note: Actual official high and low records may vary slightly from our data, if they occured in-between our weather recording intervals... More about our weather records

Advertising

Ilmenau weather history for previous 24 hours

 ConditionsComfort  
Time TempWeatherWind HumidityBarometerVisibility
2:20 AM
Jul 30
66 °FLight rain. Fog.5 mph94%29.74 "Hg2 mi
1:50 AM66 °FLight rain. Fog.3 mph94%29.74 "Hg2 mi
1:20 AM66 °FSprinkles. Fog.No wind94%29.77 "Hg2 mi
12:50 AM66 °FPartly cloudy.3 mph94%29.77 "Hg5 mi
12:20 AM66 °FPartly cloudy.8 mph94%29.77 "HgN/A
11:50 PM
Jul 29
64 °FPartly cloudy.8 mph100%29.77 "HgN/A
11:20 PM64 °FPassing clouds.7 mph100%29.77 "HgN/A
10:50 PM64 °FSprinkles. Partly cloudy.7 mph100%29.77 "HgN/A
10:20 PM64 °FThundershowers. Partly cloudy.9 mph100%29.74 "HgN/A
9:50 PM66 °FThundershowers. Broken clouds.9 mph94%29.77 "HgN/A
9:20 PM66 °FSprinkles. Broken clouds.8 mph94%29.77 "HgN/A
8:50 PM68 °FThundershowers. Broken clouds.5 mph88%29.77 "HgN/A
8:20 PM70 °FThunderstorms. Broken clouds.3 mph83%29.77 "HgN/A
7:50 PM72 °FBroken clouds.5 mph78%29.77 "HgN/A
7:20 PM70 °FMore clouds than sun.5 mph83%29.77 "HgN/A
6:50 PM73 °FSprinkles. More clouds than sun.2 mph74%29.77 "HgN/A
6:20 PM73 °FSprinkles. More clouds than sun.5 mph74%29.77 "HgN/A
5:50 PM73 °FSprinkles. Partly sunny.9 mph74%29.77 "HgN/A
5:20 PM73 °FBroken clouds.8 mph69%29.77 "HgN/A
4:50 PM75 °FBroken clouds.12 mph69%29.77 "HgN/A
4:20 PM75 °FBroken clouds.9 mph69%29.77 "HgN/A
3:50 PM75 °FBroken clouds.8 mph69%29.77 "HgN/A
3:20 PM75 °FBroken clouds.5 mph69%29.77 "HgN/A
2:50 PM75 °FPartly sunny.6 mph69%29.77 "HgN/A
2:20 PM75 °FBroken clouds.5 mph74%29.80 "HgN/A
1:50 PM73 °FBroken clouds.5 mph78%29.80 "HgN/A
1:20 PM73 °FBroken clouds.5 mph74%29.80 "HgN/A
12:50 PM72 °FPartly sunny.5 mph78%29.80 "HgN/A
12:20 PM72 °FBroken clouds.5 mph78%29.83 "HgN/A
11:50 AM72 °FPartly sunny.7 mph83%29.83 "Hg6 mi
11:20 AM72 °FPartly sunny.7 mph78%29.83 "Hg6 mi
10:50 AM70 °FPartly sunny.8 mph83%29.83 "Hg6 mi
10:20 AM70 °FPartly sunny.3 mph83%29.83 "Hg6 mi
9:50 AM68 °FPartly sunny.6 mph88%29.83 "Hg6 mi
9:20 AM68 °FPartly sunny.2 mph88%29.83 "Hg4 mi
8:50 AM68 °FFog.3 mph88%29.83 "Hg3 mi
8:20 AM66 °FFog.3 mph94%29.83 "Hg3 mi
7:50 AM64 °FFog.2 mph94%29.83 "Hg3 mi
7:20 AM64 °FFog.1 mph100%29.83 "Hg2 mi
6:50 AM64 °FPartly sunny.2 mph94%29.83 "Hg2 mi
6:20 AM63 °FMild.2 mph94%29.83 "Hg2 mi
5:50 AM63 °FFog.2 mph100%29.83 "Hg2 mi
5:20 AM63 °FFog.2 mph100%29.83 "Hg1 mi
4:50 AM63 °FFog.3 mph100%29.83 "Hg1 mi
4:20 AM63 °FPartly cloudy.1 mph100%29.83 "HgN/A
3:50 AM63 °FPartly cloudy.3 mph100%29.83 "HgN/A
3:20 AM63 °FLight rain. Partly cloudy.2 mph94%29.83 "HgN/A
Weather by CustomWeather, © 2014

See weather overviewHow to use our weather pages